N3PL Weather Reports


Display with metric or nautical units.
time (UTC)temp
F
wind
direction
speed
MPH
gust
MPH
rain 1hr
in
rain 24hr
in
rain mn
in
humidity
%
barometer
mb
20260503224501 59 282 0.0 0.0 0.00 0.00 0.00 27 1008.4
20260503224007 59 282 0.0 0.0 0.00 0.00 0.00 27 1008.4
20260503223507 59 275 0.0 0.0 0.00 0.00 0.00 27 1008.4
20260503223011 59 318 0.0 0.0 0.00 0.00 0.00 28 1008.4
20260503222605 58 318 0.0 0.0 0.00 0.00 0.00 27 1008.4
20260503222107 58 287 0.0 0.0 0.00 0.00 0.00 26 1008.4
20260503221503 58 292 0.0 0.0 0.00 0.00 0.00 27 1008.4
20260503221005 58 272 0.0 0.0 0.00 0.00 0.00 26 1008.5
20260503220509 58 285 0.0 0.0 0.00 0.00 0.00 28 1008.5
20260503220106 58 272 0.0 0.0 0.00 0.00 0.00 26 1008.5
20260503215503 58 294 0.0 0.0 0.00 0.00 0.00 27 1008.5
20260503215005 58 285 0.0 0.0 0.00 0.00 0.00 25 1008.5
20260503214559 58 325 0.0 0.0 0.00 0.00 0.00 26 1008.5
20260503214101 58 302 0.0 0.0 0.00 0.00 0.00 26 1008.5
20260503213501 58 328 0.0 0.0 0.00 0.00 0.00 26 1008.5
20260503213004 58 278 0.0 0.0 0.00 0.00 0.00 26 1008.5
20260503212557 58 281 0.0 0.0 0.00 0.00 0.00 25 1008.3
20260503212106 58 258 0.0 0.0 0.00 0.00 0.00 26 1008.3
20260503211510 58 313 0.0 0.0 0.00 0.00 0.00 26 1008.3
20260503211101 59 323 0.0 0.0 0.00 0.00 0.00 26 1008.4
20260503210603 59 313 0.0 0.0 0.00 0.00 0.00 25 1008.4
20260503210009 58 285 0.0 0.0 0.00 0.00 0.00 26 1008.4
20260503205509 58 287 0.0 0.0 0.00 0.00 0.00 26 1008.4
20260503205100 58 291 0.0 0.0 0.00 0.00 0.00 28 1008.4
20260503204610 58 325 0.0 0.0 0.00 0.00 0.00 27 1008.4
20260503204106 58 275 0.0 0.0 0.00 0.00 0.00 27 1008.5
20260503203502 58 265 0.0 0.0 0.00 0.00 0.00 26 1008.5
20260503203009 58 296 0.0 0.0 0.00 0.00 0.00 28 1008.5
20260503202512 58 281 0.0 0.0 0.00 0.00 0.00 28 1008.8
20260503202016 57 268 0.0 0.0 0.00 0.00 0.00 27 1008.8
20260503201502 56 305 0.0 0.0 0.00 0.00 0.00 28 1008.8
20260503201005 56 285 0.0 0.0 0.00 0.00 0.00 28 1008.8
20260503200507 56 265 0.0 0.0 0.00 0.00 0.00 28 1008.8
20260503195504 57 270 0.0 0.0 0.00 0.00 0.00 28 1009.0
20260503195007 57 342 0.0 0.0 0.00 0.00 0.00 29 1009.0
20260503194509 56 284 0.0 0.0 0.00 0.00 0.00 27 1009.0
20260503194104 57 258 0.0 0.0 0.00 0.00 0.00 28 1009.1
20260503193605 56 296 0.0 0.0 0.00 0.00 0.00 28 1009.1
20260503193000 56 280 0.0 0.0 0.00 0.00 0.00 27 1009.1
20260503192505 56 287 0.0 0.0 0.00 0.00 0.00 27 1009.3
20260503192103 56 288 0.0 0.0 0.00 0.00 0.00 28 1009.3
20260503191608 55 264 0.0 0.0 0.00 0.00 0.00 29 1009.3
20260503191003 55 261 0.0 0.0 0.00 0.00 0.00 28 1009.5
20260503190506 56 311 0.0 0.0 0.00 0.00 0.00 28 1009.5
20260503185605 56 271 0.0 0.0 0.00 0.00 0.00 28 1009.5
20260503185107 55 337 0.0 0.0 0.00 0.00 0.00 28 1009.5
20260503184502 55 326 0.0 0.0 0.00 0.00 0.00 28 1009.5
20260503184056 56 356 0.0 0.0 0.00 0.00 0.00 28 1009.6
20260503183557 55 274 0.0 0.0 0.00 0.00 0.00 29 1009.6
20260503183108 55 263 0.0 0.0 0.00 0.00 0.00 28 1009.6
20260503182501 55 326 0.0 0.0 0.00 0.00 0.00 28 1009.7
20260503182010 55 271 0.0 0.0 0.00 0.00 0.00 27 1009.7
20260503181510 55 305 0.0 0.0 0.00 0.00 0.00 27 1009.7
20260503181104 55 288 0.0 0.0 0.00 0.00 0.00 28 1010.0
20260503180506 55 277 0.0 0.0 0.00 0.00 0.00 27 1010.0
20260503180008 55 248 0.0 0.0 0.00 0.00 0.00 27 1010.0
20260503175510 55 320 0.0 0.0 0.00 0.00 0.00 28 1009.8
20260503175104 55 294 0.0 0.0 0.00 0.00 0.00 28 1009.8
20260503174551 54 316 0.0 0.0 0.00 0.00 0.00 27 1009.8
20260503174055 54 292 0.0 0.0 0.00 0.00 0.00 29 1009.9
20260503173559 54 254 0.0 0.0 0.00 0.00 0.00 28 1009.9
20260503173210 53 257 0.0 0.0 0.00 0.00 0.00 28 1009.9
20260503172605 53 270 0.0 0.0 0.00 0.00 0.00 29 1010.0
20260503172003 53 253 0.0 0.0 0.00 0.00 0.00 28 1010.0
20260503171505 53 241 0.0 0.0 0.00 0.00 0.00 30 1010.0
20260503171058 53 250 3.0 0.0 0.00 0.00 0.00 28 1010.0
20260503170601 52 271 4.0 0.0 0.00 0.00 0.00 31 1010.0
20260503170105 52 301 1.0 0.0 0.00 0.00 0.00 31 1010.0
20260503151003 48 257 0.0 0.0 0.00 0.00 0.00 40 1010.6
20260503150559 49 318 0.0 0.0 0.00 0.00 0.00 43 1010.6
20260503131059 45 284 0.0 0.0 0.00 0.00 0.00 50 1010.3
20260503130602 45 288 0.0 0.0 0.00 0.00 0.00 51 1010.3
20260503130114 45 316 0.0 0.0 0.00 0.00 0.00 50 1010.3
20260503120116 44 288 0.0 0.0 0.00 0.00 0.00 56 1009.9
20260503110504 43 313 0.0 0.0 0.00 0.00 0.00 62 1009.3
20260503100113 43 311 0.0 0.0 0.00 0.00 0.00 64 1008.4
20260503090510 43 274 0.0 0.0 0.00 0.00 0.00 66 1008.0
20260503090106 43 274 0.0 0.0 0.00 0.00 0.00 66 1008.0
20260503081604 43 299 0.0 0.0 0.00 0.00 0.00 68 1007.7
20260503081001 43 299 0.0 0.0 0.00 0.00 0.00 67 1007.5
20260503080558 43 299 0.0 0.0 0.00 0.00 0.00 67 1007.5
20260503072505 43 299 0.0 0.0 0.00 0.00 0.00 66 1007.1
20260503072008 43 299 0.0 0.0 0.00 0.00 0.00 66 1007.1
20260503071605 43 299 0.0 0.0 0.00 0.00 0.00 66 1007.1
20260503071004 43 299 0.0 0.0 0.00 0.00 0.00 66 1006.6
20260503070507 43 299 0.0 0.0 0.00 0.00 0.00 66 1006.6
20260503055108 45 274 0.0 0.0 0.00 0.00 0.00 61 1007.3
20260503054502 45 281 0.0 0.0 0.00 0.00 0.00 61 1007.3
20260503054006 46 277 0.0 0.0 0.00 0.00 0.00 60 1007.4
20260503053603 46 313 0.0 0.0 0.00 0.00 0.00 60 1007.4
20260503053108 46 313 0.0 0.0 0.00 0.00 0.00 59 1007.4
20260503052505 46 302 0.0 0.0 0.00 0.00 0.00 59 1007.5
20260503052057 46 287 0.0 0.0 0.00 0.00 0.00 59 1007.5
20260503051600 47 287 0.0 0.0 0.00 0.00 0.00 58 1007.5
20260503051103 47 311 0.0 0.0 0.00 0.00 0.00 58 1007.8
20260503050607 47 280 0.0 0.0 0.00 0.00 0.00 57 1007.8
20260503050002 47 292 0.0 0.0 0.00 0.00 0.00 57 1007.8
20260503045505 47 294 0.0 0.0 0.00 0.00 0.00 57 1007.8
20260503045013 48 294 0.0 0.0 0.00 0.00 0.00 57 1007.8
20260503044521 48 292 0.0 0.0 0.00 0.00 0.00 56 1007.8
20260503044106 48 294 0.0 0.0 0.00 0.00 0.00 57 1007.9
20260503043505 48 325 0.0 0.0 0.00 0.00 0.00 56 1007.9
20260503043011 48 325 0.0 0.0 0.00 0.00 0.00 56 1007.9
20260503042601 48 325 0.0 0.0 0.00 0.00 0.00 55 1007.9
20260503042107 49 320 0.0 0.0 0.00 0.00 0.00 55 1007.9
20260503041506 49 320 0.0 0.0 0.00 0.00 0.00 54 1007.9
20260503041007 49 320 0.0 0.0 0.00 0.00 0.00 54 1008.2
20260503040604 49 322 0.0 0.0 0.00 0.00 0.00 54 1008.2
20260503040006 49 322 0.0 0.0 0.00 0.00 0.00 53 1008.2
20260503035504 49 312 0.0 0.0 0.00 0.00 0.00 53 1008.1
20260503035059 49 285 0.0 0.0 0.00 0.00 0.00 52 1008.1
20260503034605 49 272 0.0 0.0 0.00 0.00 0.00 52 1008.1
20260503034003 49 306 0.0 0.0 0.00 0.00 0.00 52 1008.1
20260503033503 50 265 0.0 0.0 0.00 0.00 0.00 51 1008.1
20260503033057 50 309 0.0 0.0 0.00 0.00 0.00 51 1008.1
20260503032600 50 281 0.0 0.0 0.00 0.00 0.00 50 1008.1
20260503032105 50 330 0.0 0.0 0.00 0.00 0.00 50 1008.1
20260503031611 50 271 0.0 0.0 0.00 0.00 0.00 50 1008.1
20260503031003 50 308 0.0 0.0 0.00 0.00 0.00 49 1008.1
20260503030509 50 282 0.0 0.0 0.00 0.00 0.00 49 1008.1
20260503030015 50 292 0.0 0.0 0.00 0.00 0.00 48 1008.1
20260503025601 50 287 0.0 0.0 0.00 0.00 0.00 48 1008.2
20260503025104 50 319 0.0 0.0 0.00 0.00 0.00 47 1008.2
20260503024502 50 309 0.0 0.0 0.00 0.00 0.00 47 1008.2
20260503024006 50 309 0.0 0.0 0.00 0.00 0.00 47 1008.1
20260503023603 50 309 0.0 0.0 0.00 0.00 0.00 46 1008.1
20260503023047 50 309 0.0 0.0 0.00 0.00 0.00 46 1008.1
20260503022554 50 309 0.0 0.0 0.00 0.00 0.00 47 1008.2
20260503022057 50 309 0.0 0.0 0.00 0.00 0.00 46 1008.2
20260503021605 50 309 0.0 0.0 0.00 0.00 0.00 46 1008.2
20260503021106 50 309 0.0 0.0 0.00 0.00 0.00 46 1008.2
20260503020504 50 309 0.0 0.0 0.00 0.00 0.00 47 1008.2
20260503020100 50 309 0.0 0.0 0.00 0.00 0.00 46 1008.2
20260503015558 50 309 0.0 0.0 0.00 0.00 0.00 46 1008.1
20260503015101 50 309 0.0 0.0 0.00 0.00 0.00 46 1008.1
20260503014604 50 311 0.0 0.0 0.00 0.00 0.00 45 1008.1
20260503014002 50 311 0.0 0.0 0.00 0.00 0.00 46 1008.0
20260503013513 50 311 0.0 0.0 0.00 0.00 0.00 45 1008.0
20260503013104 51 311 0.0 0.0 0.00 0.00 0.00 46 1008.0
20260503012502 51 311 0.0 0.0 0.00 0.00 0.00 45 1008.0
20260503012006 51 311 0.0 0.0 0.00 0.00 0.00 44 1008.0
20260503011513 51 311 0.0 0.0 0.00 0.00 0.00 45 1008.0
20260503011108 51 311 0.0 0.0 0.00 0.00 0.00 46 1007.7
20260503010502 51 311 0.0 0.0 0.00 0.00 0.00 44 1007.7
20260503010006 51 311 0.0 0.0 0.00 0.00 0.00 44 1007.7
20260503005509 52 311 0.0 0.0 0.00 0.00 0.00 43 1007.6
20260503005105 52 311 0.0 0.0 0.00 0.00 0.00 42 1007.6
20260503004604 52 311 0.0 0.0 0.00 0.00 0.00 42 1007.6
20260503004001 52 311 0.0 0.0 0.00 0.00 0.00 41 1007.5
20260503003504 52 311 0.0 0.0 0.00 0.00 0.00 42 1007.5
20260503003103 52 311 0.0 0.0 0.00 0.00 0.00 41 1007.5
20260503002602 52 311 0.0 0.0 0.00 0.00 0.00 40 1007.3
20260503002003 53 311 0.0 0.0 0.00 0.00 0.00 42 1007.3
20260503001557 53 311 0.0 0.0 0.00 0.00 0.00 40 1007.3
20260503001101 53 311 0.0 0.0 0.00 0.00 0.00 39 1007.3
20260503000602 53 311 0.0 0.0 0.00 0.00 0.00 39 1007.3
20260503000112 53 311 0.0 0.0 0.00 0.00 0.00 39 1007.3
20260502235507 53 311 0.0 0.0 0.00 0.00 0.00 39 1007.2
20260502235007 54 311 0.0 0.0 0.00 0.00 0.00 38 1007.2
20260502234514 54 309 0.0 0.0 0.00 0.00 0.00 38 1007.2
20260502234004 54 309 0.0 0.0 0.00 0.00 0.00 38 1007.0
20260502233506 54 311 0.0 0.0 0.00 0.00 0.00 36 1007.0
20260502233011 54 311 0.0 0.0 0.00 0.00 0.00 36 1007.0
20260502232602 55 340 0.0 0.0 0.00 0.00 0.00 35 1006.9
20260502232105 55 288 0.0 0.0 0.00 0.00 0.00 35 1006.9
20260502231503 55 288 0.0 0.0 0.00 0.00 0.00 34 1006.9
20260502231005 55 284 0.0 0.0 0.00 0.00 0.00 34 1006.9
20260502230559 55 326 0.0 0.0 0.00 0.00 0.00 35 1006.9
20260502225504 55 271 0.0 0.0 0.00 0.00 0.00 34 1006.9
20260502225056 55 271 0.0 0.0 0.00 0.00 0.00 33 1006.9